CW0454 Weather Reports


Display with metric or nautical units.
time (UTC)temp
F
wind
direction
speed
MPH
gust
MPH
rain 1hr
in
rain 24hr
in
rain mn
in
humidity
%
barometer
mb
20260902154401 79 153 2.0 6.0 0.00 0.00 0.00 86 1017.6
20260902153402 79 99 2.0 8.0 0.00 0.00 0.00 87 1017.8
20260902152402 78 34 4.0 8.0 0.00 0.00 0.00 87 1017.8
20260902151423 78 25 4.0 10.0 0.00 0.00 0.00 88 1017.8
20260902150403 77 46 2.0 6.0 0.00 0.00 0.00 89 1017.9
20260902145402 77 53 3.0 5.0 0.00 0.00 0.00 89 1018.1
20260902144401 77 18 2.0 6.0 0.00 0.00 0.00 89 1018.4
20260902143403 77 41 2.0 6.0 0.00 0.00 0.00 89 1018.1
20260902142444 77 49 0.0 5.0 0.00 0.00 0.00 89 1018.2
20260902141402 77 68 0.0 5.0 0.00 0.00 0.00 89 1018.2
20260902140423 77 16 1.0 6.0 0.00 0.00 0.00 90 1017.8
20260902135423 77 36 2.0 7.0 0.00 0.00 0.00 91 1017.6
20260902134402 77 66 3.0 6.0 0.00 0.00 0.00 91 1017.5
20260902133402 76 16 4.0 8.0 0.00 0.00 0.00 91 1017.5
20260902132402 77 46 2.0 12.0 0.00 0.00 0.00 91 1017.7
20260902131402 77 10 1.0 8.0 0.00 0.00 0.00 92 1017.5
20260902130402 76 35 4.0 9.0 0.00 0.00 0.00 92 1017.4
20260902125402 76 35 4.0 7.0 0.00 0.00 0.00 92 1017.4
20260902124402 76 42 4.0 9.0 0.00 0.00 0.00 92 1017.3
20260902123403 76 24 3.0 6.0 0.00 0.00 0.00 93 1017.3
20260902122402 76 24 3.0 6.0 0.00 0.00 0.00 93 1017.1
20260902121403 76 18 2.0 8.0 0.00 0.00 0.00 94 1017.0
20260902120402 76 35 4.0 7.0 0.00 0.00 0.00 94 1016.9
20260902115402 76 336 3.0 5.0 0.00 0.00 0.00 95 1016.8
20260902114403 75 329 1.0 3.0 0.00 0.00 0.00 96 1016.8
20260902113402 74 329 2.0 4.0 0.00 0.00 0.00 96 1016.7
20260902112408 74 317 1.0 4.0 0.00 0.00 0.00 96 1016.8
20260902111403 72 237 0.0 0.0 0.00 0.00 0.00 96 1016.8
20260902110402 72 237 0.0 0.0 0.00 0.00 0.00 95 1016.9
20260902105403 72 237 0.0 0.0 0.00 0.00 0.00 95 1016.8
20260902104403 72 188 0.0 0.0 0.00 0.00 0.00 95 1016.6
20260902103402 72 188 0.0 0.0 0.00 0.00 0.00 95 1016.7
20260902102403 72 188 0.0 0.0 0.00 0.00 0.00 95 1016.6
20260902101402 72 138 0.0 1.0 0.00 0.00 0.00 95 1016.5
20260902100403 72 66 0.0 0.0 0.00 0.00 0.00 94 1016.4
20260902095402 72 66 0.0 0.0 0.00 0.00 0.00 94 1016.2
20260902094424 72 66 0.0 0.0 0.00 0.00 0.00 94 1016.4
20260902093402 72 66 0.0 0.0 0.00 0.00 0.00 94 1016.6
20260902092402 72 66 0.0 0.0 0.00 0.00 0.00 94 1016.5
20260902091403 73 66 0.0 0.0 0.00 0.00 0.00 94 1016.3
20260902090402 73 66 0.0 0.0 0.00 0.00 0.00 93 1016.2
20260902085403 73 66 0.0 0.0 0.00 0.00 0.00 93 1016.3
20260902084402 73 66 0.0 0.0 0.00 0.00 0.00 93 1016.4
20260902083403 73 66 0.0 0.0 0.00 0.00 0.00 92 1016.5
20260902082403 73 66 0.0 0.0 0.00 0.00 0.00 92 1016.4
20260902081402 74 66 0.0 0.0 0.00 0.00 0.00 92 1016.4
20260902080403 74 66 0.0 0.0 0.00 0.00 0.00 92 1016.4
20260902075403 74 66 0.0 0.0 0.00 0.00 0.00 91 1016.3
20260902074402 75 66 0.0 0.0 0.00 0.00 0.00 91 1016.3
20260902073424 75 66 0.0 0.0 0.00 0.00 0.00 90 1016.2
20260902072403 75 66 0.0 0.0 0.00 0.00 0.00 90 1016.2
20260902071402 75 66 0.0 1.0 0.00 0.00 0.00 89 1016.1
20260902070403 76 66 0.0 2.0 0.00 0.00 0.00 89 1015.8
20260902065402 76 66 0.0 2.0 0.00 0.00 0.00 89 1015.8
20260902064403 76 66 0.0 4.0 0.00 0.00 0.00 89 1015.8
20260902063403 77 57 1.0 5.0 0.00 0.00 0.00 89 1015.6
20260902062402 77 9 2.0 4.0 0.00 0.00 0.00 89 1015.4
20260902061400 78 53 0.0 2.0 0.00 0.00 0.00 89 1015.3
20260902060400 78 56 2.0 3.0 0.00 0.00 0.00 89 1015.4
20260902055400 78 57 2.0 3.0 0.00 0.00 0.00 88 1015.4
20260902054400 78 58 1.0 6.0 0.00 0.00 0.00 87 1015.5
20260902053359 79 40 2.0 5.0 0.00 0.00 0.00 87 1015.5
20260902052400 79 41 2.0 6.0 0.00 0.00 0.00 86 1015.6
20260902051420 79 19 4.0 11.0 0.00 0.00 0.00 85 1015.8
20260902050400 79 16 1.0 4.0 0.00 0.00 0.00 84 1016.1
20260902045421 79 5 1.0 2.0 0.00 0.00 0.00 84 1015.4
20260902044421 79 5 0.0 3.0 0.00 0.00 0.00 84 1015.4
20260902043400 80 5 0.0 6.0 0.00 0.00 0.00 84 1015.4
20260902042400 80 30 2.0 4.0 0.00 0.00 0.00 83 1015.4
20260902041400 81 34 3.0 7.0 0.00 0.00 0.00 83 1015.3
20260902040400 81 24 4.0 10.0 0.00 0.00 0.00 83 1015.2
20260902035400 82 51 3.0 10.0 0.00 0.00 0.00 83 1015.0
20260902034400 82 13 2.0 4.0 0.00 0.00 0.00 84 1014.8
20260902033400 82 14 1.0 4.0 0.00 0.00 0.00 83 1014.6
20260902032421 83 15 0.0 5.0 0.00 0.00 0.00 82 1014.5
20260902031400 83 42 1.0 7.0 0.00 0.00 0.00 81 1014.4
20260902030421 83 40 2.0 6.0 0.00 0.00 0.00 80 1014.4
20260902025400 83 328 3.0 4.0 0.00 0.00 0.00 78 1014.0
20260902024400 83 251 1.0 4.0 0.00 0.00 0.00 78 1013.5
20260902023400 84 237 1.0 3.0 0.00 0.00 0.00 77 1013.5
20260902022400 84 237 1.0 4.0 0.00 0.00 0.00 76 1013.5
20260902021401 84 212 2.0 7.0 0.00 0.00 0.00 76 1013.5
20260902020400 84 166 1.0 8.0 0.00 0.00 0.00 77 1013.3
20260902015421 83 180 1.0 9.0 0.00 0.00 0.00 80 1013.2
20260902014400 82 231 2.0 6.0 0.00 0.00 0.00 83 1013.1
20260902013400 81 213 1.0 9.0 0.00 0.00 0.00 84 1013.0
20260902012400 81 192 1.0 3.0 0.00 0.00 0.00 86 1012.9
20260902011400 81 194 1.0 4.0 0.00 0.00 0.00 87 1012.7
20260902010401 82 194 0.0 2.0 0.00 0.00 0.00 87 1013.0
20260902005400 82 195 0.0 1.0 0.00 0.00 0.00 86 1013.0
20260902004401 82 195 0.0 1.0 0.00 0.00 0.00 86 1012.9
20260902003400 83 194 0.0 2.0 0.00 0.00 0.00 86 1012.5
20260902002401 83 195 0.0 2.0 0.00 0.00 0.00 85 1012.3
20260902001400 84 194 0.0 1.0 0.00 0.00 0.00 84 1011.8
20260902000400 85 194 1.0 2.0 0.00 0.00 0.00 84 1011.6
20260901235400 85 194 0.0 1.0 0.00 0.00 0.00 84 1011.9
20260901234400 86 195 0.0 0.0 0.00 0.00 0.00 83 1012.1
20260901233400 86 195 0.0 0.0 0.00 0.00 0.00 81 1012.1
20260901232400 87 195 0.0 2.0 0.00 0.00 0.00 79 1012.1
20260901231422 87 194 0.0 1.0 0.00 0.00 0.00 76 1012.1
20260901230401 88 195 0.0 0.0 0.00 0.00 0.00 75 1012.2
20260901225401 89 195 0.0 2.0 0.00 0.00 0.00 74 1012.2
20260901224400 89 196 1.0 5.0 0.00 0.00 0.00 75 1012.3
20260901223401 90 207 0.0 5.0 0.00 0.00 0.00 75 1012.4
20260901222400 90 92 0.0 3.0 0.00 0.00 0.00 74 1012.3
20260901221401 91 108 1.0 3.0 0.00 0.00 0.00 73 1012.4
20260901220400 91 107 0.0 3.0 0.00 0.00 0.00 71 1012.5
20260901215401 91 109 0.0 3.0 0.00 0.00 0.00 70 1012.4
20260901214401 92 108 0.0 2.0 0.00 0.00 0.00 67 1012.5
20260901213422 93 107 2.0 4.0 0.00 0.00 0.00 69 1012.4
20260901212422 93 44 1.0 4.0 0.00 0.00 0.00 67 1012.6
20260901211400 93 263 2.0 4.0 0.00 0.00 0.00 65 1012.7
20260901210401 93 251 0.0 7.0 0.00 0.00 0.00 63 1012.7
20260901205422 94 230 2.0 6.0 0.00 0.00 0.00 58 1012.8
20260901204401 94 285 2.0 4.0 0.00 0.00 0.00 62 1012.8
20260901203400 95 289 1.0 8.0 0.00 0.00 0.00 58 1012.8
20260901202401 95 223 2.0 8.0 0.00 0.00 0.00 57 1012.8
20260901201401 95 308 2.0 6.0 0.00 0.00 0.00 61 1013.0
20260901200401 95 235 3.0 6.0 0.00 0.00 0.00 59 1013.1
20260901195422 95 262 2.0 6.0 0.00 0.00 0.00 61 1013.2
20260901194401 95 248 3.0 10.0 0.00 0.00 0.00 61 1013.3
20260901193401 95 243 2.0 7.0 0.00 0.00 0.00 60 1013.4
20260901192402 94 267 3.0 11.0 0.00 0.00 0.00 58 1013.6
20260901191401 94 210 3.0 9.0 0.00 0.00 0.00 59 1013.7
20260901190401 95 251 1.0 6.0 0.00 0.00 0.00 65 1013.8
20260901185401 95 247 1.0 8.0 0.00 0.00 0.00 62 1013.9
20260901184401 94 256 2.0 8.0 0.00 0.00 0.00 64 1013.9
20260901183402 94 263 3.0 11.0 0.00 0.00 0.00 63 1013.8
20260901182401 94 230 1.0 9.0 0.00 0.00 0.00 64 1013.9
20260901181402 94 263 2.0 6.0 0.00 0.00 0.00 65 1013.8
20260901180401 92 258 1.0 7.0 0.00 0.00 0.00 66 1013.9
20260901175402 92 271 2.0 6.0 0.00 0.00 0.00 68 1014.0
20260901174423 91 266 1.0 7.0 0.00 0.00 0.00 70 1014.2
20260901173401 89 250 1.0 7.0 0.00 0.00 0.00 70 1014.2
20260901172402 89 247 3.0 7.0 0.00 0.00 0.00 73 1014.2
20260901171401 89 241 1.0 5.0 0.00 0.00 0.00 72 1014.1
20260901170423 89 200 2.0 5.0 0.00 0.00 0.00 72 1014.2
20260901165401 90 202 2.0 8.0 0.00 0.00 0.00 68 1014.4
20260901164402 90 249 2.0 7.0 0.00 0.00 0.00 70 1014.5
20260901163401 90 209 3.0 9.0 0.00 0.00 0.00 70 1014.5
20260901162402 90 198 1.0 8.0 0.00 0.00 0.00 70 1014.6
20260901161401 90 250 2.0 8.0 0.00 0.00 0.00 70 1014.7
20260901160402 90 258 3.0 7.0 0.00 0.00 0.00 70 1014.8
20260901155401 89 203 2.0 5.0 0.00 0.00 0.00 71 1014.8